Previsão horária em Julianow

Hoje, 22 Junho, Terça-feira

Tempo Temperatura Precipitação Vento Pressão Humidade
00:00 +20°C° 0 mm 2 m/s 739 mmHg 92%
01:00 +19°C° 0 mm 2 m/s 739 mmHg 94%
02:00 +19°C° 0 mm 2 m/s 739 mmHg 93%
03:00 +19°C° 0 mm 2 m/s 739 mmHg 93%
04:00 +19°C° 0 mm 2 m/s 739 mmHg 93%
05:00 +20°C° 0 mm 2 m/s 739 mmHg 86%
06:00 +22°C° 0 mm 3 m/s 739 mmHg 80%
07:00 +25°C° 0 mm 3 m/s 740 mmHg 74%
08:00 +26°C° 0 mm 3 m/s 740 mmHg 69%
09:00 +28°C° 0 mm 3 m/s 740 mmHg 64%
10:00 +30°C° 0 mm 3 m/s 740 mmHg 59%
11:00 +30°C° 0 mm 2 m/s 740 mmHg 55%
12:00 +31°C° 0 mm 2 m/s 740 mmHg 52%
13:00 +32°C° 0 mm 2 m/s 740 mmHg 49%
14:00 +32°C° 0 mm 2 m/s 740 mmHg 49%
15:00 +32°C° 0 mm 2 m/s 741 mmHg 49%
16:00 +32°C° 0 mm 2 m/s 741 mmHg 49%
17:00 +28°C° 2.1 mm 3 m/s 741 mmHg 62%
18:00 +25°C° 2.1 mm 3 m/s 741 mmHg 76%
19:00 +20°C° 2.1 mm 3 m/s 741 mmHg 89%
20:00 +20°C° 1.7 mm 3 m/s 741 mmHg 89%
21:00 +21°C° 1.7 mm 2 m/s 741 mmHg 89%
22:00 +22°C° 1.7 mm 1 m/s 742 mmHg 90%
23:00 +20°C° 0.1 mm 2 m/s 742 mmHg 89%

Amanhã, 23 Junho, Quarta-feira

Tempo Temperatura Precipitação Vento Pressão Humidade
00:00 +20°C° 0.1 mm 2 m/s 742 mmHg 89%
01:00 +20°C° 0.1 mm 2 m/s 742 mmHg 89%
02:00 +21°C° 0.5 mm 1 m/s 742 mmHg 90%
03:00 +21°C° 0.5 mm 1 m/s 742 mmHg 91%
04:00 +21°C° 0.5 mm 1 m/s 742 mmHg 91%
05:00 +22°C° 0 mm 1 m/s 743 mmHg 89%
06:00 +23°C° 0 mm 1 m/s 743 mmHg 87%
07:00 +23°C° 0 mm 1 m/s 743 mmHg 84%
08:00 +25°C° 0.1 mm 1 m/s 744 mmHg 80%
09:00 +26°C° 0.1 mm 1 m/s 744 mmHg 76%
10:00 +27°C° 0.1 mm 2 m/s 744 mmHg 71%
11:00 +28°C° 0.3 mm 2 m/s 744 mmHg 68%
12:00 +29°C° 0.3 mm 2 m/s 744 mmHg 65%
13:00 +30°C° 0.3 mm 2 m/s 744 mmHg 63%
14:00 +29°C° 1.8 mm 2 m/s 744 mmHg 66%
15:00 +28°C° 1.8 mm 2 m/s 744 mmHg 70%
16:00 +28°C° 1.8 mm 2 m/s 744 mmHg 74%
17:00 +27°C° 0.8 mm 2 m/s 744 mmHg 77%
18:00 +25°C° 0.8 mm 1 m/s 744 mmHg 81%
19:00 +24°C° 0.8 mm 1 m/s 744 mmHg 85%
20:00 +23°C° 0.5 mm 1 m/s 744 mmHg 87%
21:00 +22°C° 0.5 mm 1 m/s 745 mmHg 89%
22:00 +21°C° 0.5 mm 1 m/s 745 mmHg 91%
23:00 +21°C° 0 mm 1 m/s 745 mmHg 91%

Depois de amanhã, 24 Junho, Quinta-feira

Tempo Temperatura Precipitação Vento Pressão Humidade
00:00 +21°C° 0 mm 1 m/s 745 mmHg 92%
01:00 +21°C° 0 mm 1 m/s 745 mmHg 92%
02:00 +20°C° 0 mm 1 m/s 745 mmHg 93%
03:00 +20°C° 0 mm 1 m/s 745 mmHg 94%
04:00 +20°C° 0 mm 1 m/s 745 mmHg 95%
05:00 +21°C° 0 mm 1 m/s 745 mmHg 91%
06:00 +23°C° 0 mm 1 m/s 745 mmHg 87%
07:00 +24°C° 0 mm 1 m/s 745 mmHg 84%
08:00 +26°C° 0 mm 1 m/s 745 mmHg 78%
09:00 +25°C° 0 mm 0 m/s 745 mmHg 72%
10:00 +27°C° 0 mm 0 m/s 745 mmHg 66%
11:00 +28°C° 0 mm 0 m/s 745 mmHg 63%
12:00 +29°C° 0 mm 0 m/s 745 mmHg 60%
13:00 +31°C° 0 mm 1 m/s 744 mmHg 57%
14:00 +31°C° 0.1 mm 1 m/s 744 mmHg 56%
15:00 +32°C° 0.1 mm 1 m/s 744 mmHg 55%
16:00 +30°C° 0.1 mm 0 m/s 744 mmHg 53%
17:00 +31°C° 0 mm 1 m/s 743 mmHg 59%
18:00 +29°C° 0 mm 1 m/s 743 mmHg 66%
19:00 +28°C° 0 mm 1 m/s 743 mmHg 72%
20:00 +27°C° 0.6 mm 1 m/s 743 mmHg 76%
21:00 +25°C° 0.6 mm 2 m/s 743 mmHg 81%
22:00 +24°C° 0.6 mm 2 m/s 743 mmHg 86%
23:00 +24°C° 0.1 mm 2 m/s 742 mmHg 87%

25 Junho, Sexta-feira

Tempo Temperatura Precipitação Vento Pressão Humidade
00:00 +23°C° 0.1 mm 2 m/s 742 mmHg 89%
01:00 +22°C° 0.1 mm 3 m/s 741 mmHg 90%
02:00 +22°C° 0.1 mm 3 m/s 741 mmHg 90%
03:00 +22°C° 0.1 mm 3 m/s 741 mmHg 91%
04:00 +21°C° 0.1 mm 3 m/s 741 mmHg 91%
05:00 +24°C° 0 mm 3 m/s 741 mmHg 86%
06:00 +25°C° 0 mm 4 m/s 741 mmHg 81%
07:00 +27°C° 0 mm 5 m/s 741 mmHg 76%
08:00 +27°C° 0 mm 4 m/s 741 mmHg 72%
09:00 +28°C° 0 mm 4 m/s 741 mmHg 67%
10:00 +29°C° 0 mm 4 m/s 741 mmHg 63%
11:00 +29°C° 0 mm 4 m/s 742 mmHg 61%
12:00 +29°C° 0 mm 5 m/s 742 mmHg 59%
13:00 +30°C° 0 mm 5 m/s 742 mmHg 57%
14:00 +29°C° 0 mm 5 m/s 742 mmHg 58%
15:00 +28°C° 0 mm 5 m/s 743 mmHg 59%
16:00 +28°C° 0 mm 5 m/s 743 mmHg 61%
17:00 +26°C° 0 mm 5 m/s 743 mmHg 66%
18:00 +25°C° 0 mm 5 m/s 743 mmHg 71%
19:00 +22°C° 0 mm 4 m/s 743 mmHg 77%
20:00 +21°C° 0 mm 4 m/s 744 mmHg 79%
21:00 +20°C° 0 mm 3 m/s 744 mmHg 82%
22:00 +18°C° 0 mm 2 m/s 744 mmHg 85%
23:00 +18°C° 0 mm 3 m/s 744 mmHg 87%

26 Junho, Sábado

Tempo Temperatura Precipitação Vento Pressão Humidade
00:00 +17°C° 0 mm 3 m/s 745 mmHg 88%
01:00 +16°C° 0 mm 3 m/s 745 mmHg 90%
02:00 +16°C° 0 mm 2 m/s 745 mmHg 91%
03:00 +15°C° 0 mm 2 m/s 745 mmHg 92%
04:00 +15°C° 0 mm 2 m/s 745 mmHg 93%
05:00 +16°C° 0 mm 2 m/s 745 mmHg 87%
06:00 +18°C° 0 mm 2 m/s 745 mmHg 81%
07:00 +20°C° 0 mm 1 m/s 746 mmHg 75%
08:00 +21°C° 0 mm 2 m/s 746 mmHg 71%
09:00 +23°C° 0 mm 2 m/s 746 mmHg 66%
10:00 +24°C° 0 mm 3 m/s 746 mmHg 61%
11:00 +25°C° 0 mm 3 m/s 745 mmHg 59%
12:00 +26°C° 0 mm 3 m/s 745 mmHg 56%
13:00 +26°C° 0 mm 3 m/s 745 mmHg 53%
14:00 +25°C° 0.1 mm 2 m/s 745 mmHg 58%
15:00 +24°C° 0.1 mm 2 m/s 745 mmHg 63%
16:00 +23°C° 0.1 mm 2 m/s 745 mmHg 68%
17:00 +23°C° 0 mm 2 m/s 745 mmHg 71%
18:00 +21°C° 0 mm 2 m/s 745 mmHg 74%
19:00 +21°C° 0 mm 2 m/s 745 mmHg 76%
20:00 +20°C° 0 mm 2 m/s 745 mmHg 78%
21:00 +19°C° 0 mm 2 m/s 745 mmHg 80%
22:00 +18°C° 0 mm 2 m/s 745 mmHg 82%
23:00 +18°C° 0 mm 2 m/s 745 mmHg 83%

27 Junho, Domingo

Tempo Temperatura Precipitação Vento Pressão Humidade
00:00 +17°C° 0 mm 2 m/s 745 mmHg 83%
01:00 +17°C° 0 mm 2 m/s 745 mmHg 84%
02:00 +17°C° 0.5 mm 2 m/s 745 mmHg 85%
03:00 +17°C° 0.5 mm 2 m/s 745 mmHg 87%
04:00 +18°C° 0.5 mm 1 m/s 745 mmHg 88%
05:00 +18°C° 1.2 mm 1 m/s 745 mmHg 90%
06:00 +18°C° 1.2 mm 1 m/s 746 mmHg 92%
07:00 +18°C° 1.2 mm 1 m/s 746 mmHg 94%
08:00 +18°C° 0.6 mm 1 m/s 746 mmHg 92%
09:00 +19°C° 0.6 mm 1 m/s 746 mmHg 89%
10:00 +19°C° 0.6 mm 1 m/s 746 mmHg 86%
11:00 +20°C° 0.1 mm 1 m/s 746 mmHg 86%
12:00 +20°C° 0.1 mm 1 m/s 746 mmHg 85%
13:00 +20°C° 0.1 mm 1 m/s 746 mmHg 84%
14:00 +21°C° 0.1 mm 1 m/s 746 mmHg 80%
15:00 +21°C° 0.1 mm 1 m/s 746 mmHg 76%
16:00 +22°C° 0.1 mm 1 m/s 746 mmHg 72%
17:00 +22°C° 0.1 mm 1 m/s 746 mmHg 75%
18:00 +21°C° 0.1 mm 1 m/s 746 mmHg 79%
19:00 +20°C° 0.1 mm 1 m/s 746 mmHg 82%
20:00 +20°C° 0 mm 1 m/s 746 mmHg 85%
21:00 +19°C° 0 mm 1 m/s 746 mmHg 88%
22:00 +18°C° 0 mm 1 m/s 746 mmHg 91%
23:00 +17°C° 0 mm 2 m/s 746 mmHg 92%
Mostrar mais

Necessitamos do seu Consentimento

A Meteoprog e os seus Fornecedores de Serviços podem armazenar e aceder a dados pessoais como cookies, identificadores do dispositivo ou outras tecnologias semelhantes existentes no seu dispositivo e processar estes dados para personalizar conteúdos e anúncios, assim como funcionalidades nas redes sociais e análise de tráfego.

  • Armazenar e/ou aceder a informações no seu dispositivo

    Os cookies, identificadores do dispositivo ou outras informações podem ser armazenados ou acedidos no seu dispositivo, para os fins acima indicados.

  • Anúncios e conteúdos personalizados, medição de anúncios e conteúdos, dados sobre o público-alvo e desenvolvimento de produtos

    Os anúncios e os conteúdos podem ser personalizados com base num perfil. Podem ser adicionados dados adicionais para uma maior personalização dos anúncios e dos conteúdos. A eficácia dos anúncios e dos conteúdos pode ser medida. Podem ser obtidas informações sobre o público que visualizou os anúncios e os conteúdos. Estes dados podem ser usados para desenvolver ou melhorar sistemas, softwares ou a experiência do utilizador.

Ao clicar em "Eu concordo”, permitirá o uso de cookies, identificadores do dispositivo e web beacons mencionados ou outras tecnologias semelhantes. As configurações do navegador do seu dispositivo podem ser alteradas.

Para certos fins, podem ser invocados interesses legítimos ao invés de consentimento. Pode ler mais informação sobre este assunto na nossa Política de Privacidade e Cookies.